sat.trackr.live / text

‹ back to catalog

BEIDOU-3 M2 (C20)

NORAD 43002 · 2017-069B

PAYLOAD ACTIVE UNKNOWN

§ Identity

Operator
Country
PRC
Launch date
2017-11-05
Launch site
XICLF
Launch vehicle
Mass (kg)
RCS (m²)

Purposes: nav

External: N2YO · Heavens-Above · Gunter

§ Orbital elements

Epoch: 2026-09-19T13:49:39.993312Z

Period
773.23 min
Inclination
56.7786°
Eccentricity
0.0006006
Mean motion
1.86230841 rev/d
Perigee alt
21,511.3 km
Apogee alt
21,544.8 km
Semi-major
27,906.2 km
B*
0.0000e+0
RAAN
60.0164°
Arg perigee
2.5387°
Mean anomaly
357.4847°
Rev number
6,035

§ Raw data

BEIDOU-3 M2 (C20)1 43002U 17069B   26262.57615733 -.00000010  00000+0  00000+0 0  99972 43002  56.7786  60.0164 0006006   2.5387 357.4847  1.86230841 60359

JSON: /api/v1/satellites/43002 · /tle

For live sub-satellite position, see the globe view (requires WebGL).

§ Visibility from observer

Set your observer location to see the next 7 days of passes ≥ 10°. The values pass through the URL so the page stays shareable.

No JS? Fill the form by hand. The geolocation button needs JavaScript.